FENGYUN 2G

Last updated on Sat Apr 13 2024 01:02:16 GMT+0100 (British Summer Time)

1 40367U 14090A 24103.63202795 -.00000311 00000+0 00000+0 0 9992 2 40367 3.6237 82.2525 0002238 87.2091 359.0841 1.00273964 34020
UTC large
Height (km)
Speed (km/s)
/
Latitude / Longitude
Inclination (degrees)
Orbital Period (minutes)
Azimuth
Elevation
Range (km)
Doppler Factor

Next 0 passes for location: London (51.5072 / 0.1276)

Sorry there are no passes over London.